[keps] orb10119.amsat
Ray Hoad
ray.hoad at mypbmail.com
Thu Apr 29 19:29:40 PDT 2010
SB KEPS @ AMSAT $ORB10119.O
Orbital Elements 10119.OSCAR
HR AMSAT ORBITAL ELEMENTS FOR OSCAR SATELLITES
FROM WA5QGD FORT WORTH,TX April 29, 2010
Send Subscribe/unsubscribe to KEPS at http://www.amsat.org/mailman/listinfo/keps
BID: ORB10119.O
TO ALL RADIO AMATEURS BT
Satellite: AO-07
Catalog number: 07530
Epoch time: 10118.72280199
Element set: 763
Inclination: 101.4030 deg
RA of node: 136.5055 deg
Eccentricity: 0.0012236
Arg of perigee: 012.0575 deg
Mean anomaly: 348.0781 deg
Mean motion: 12.53578212 rev/day
Decay rate: -2.7e-07 rev/day^2
Epoch rev: 62225
Checksum: 260
Satellite: FO-29
Catalog number: 24278
Epoch time: 10119.59114790
Element set: 299
Inclination: 098.5150 deg
RA of node: 315.4363 deg
Eccentricity: 0.0349739
Arg of perigee: 249.8968 deg
Mean anomaly: 106.4218 deg
Mean motion: 13.52949914 rev/day
Decay rate: 4.5e-07 rev/day^2
Epoch rev: 67653
Checksum: 352
Satellite: SO-33
Catalog number: 25509
Epoch time: 10118.98344329
Element set: 699
Inclination: 031.4332 deg
RA of node: 066.7657 deg
Eccentricity: 0.0354228
Arg of perigee: 219.6991 deg
Mean anomaly: 137.7154 deg
Mean motion: 14.28303845 rev/day
Decay rate: 5.0e-08 rev/day^2
Epoch rev: 60101
Checksum: 309
Satellite: RS-22
Catalog number: 27939
Epoch time: 10119.64657499
Element set: 137
Inclination: 097.9011 deg
RA of node: 347.1769 deg
Eccentricity: 0.0012917
Arg of perigee: 209.1093 deg
Mean anomaly: 150.9385 deg
Mean motion: 14.63409963 rev/day
Decay rate: 1.49e-06 rev/day^2
Epoch rev: 35185
Checksum: 337
Satellite: VO-52
Catalog number: 28650
Epoch time: 10119.03959676
Element set: 492
Inclination: 097.6957 deg
RA of node: 174.3800 deg
Eccentricity: 0.0028381
Arg of perigee: 078.0462 deg
Mean anomaly: 282.3928 deg
Mean motion: 14.81730787 rev/day
Decay rate: 1.0e-08 rev/day^2
Epoch rev: 26941
Checksum: 330
Satellite: SO-67
Catalog number: 35870
Epoch time: 10119.89174853
Element set: 679
Inclination: 097.3359 deg
RA of node: 170.2952 deg
Eccentricity: 0.0004146
Arg of perigee: 225.6584 deg
Mean anomaly: 238.2067 deg
Mean motion: 15.21175977 rev/day
Decay rate: -3.27779e-03 rev/day^2
Epoch rev: 3411
Checksum: 349
Satellite: HO-68
Catalog number: 36122
Epoch time: 10119.60296865
Element set: 258
Inclination: 100.4727 deg
RA of node: 180.5165 deg
Eccentricity: 0.0007848
Arg of perigee: 085.6634 deg
Mean anomaly: 274.5379 deg
Mean motion: 13.16280385 rev/day
Decay rate: -4.5e-07 rev/day^2
Epoch rev: 1782
Checksum: 316
/EX
SB KEPS @ AMSAT $ORB10119.D
Orbital Elements 10119.MICROS
HR AMSAT ORBITAL ELEMENTS FOR THE MICROSATS
FROM WA5QGD FORT WORTH,TX April 29, 2010
Send Subscribe/unsubscribe to KEPS at http://www.amsat.org/mailman/listinfo/keps
BID: ORB10119.D
TO ALL RADIO AMATEURS BT
Satellite: UO-11
Catalog number: 14781
Epoch time: 10119.60815910
Element set: 227
Inclination: 098.0592 deg
RA of node: 171.1905 deg
Eccentricity: 0.0009893
Arg of perigee: 041.0096 deg
Mean anomaly: 319.1826 deg
Mean motion: 14.79794959 rev/day
Decay rate: 9.3e-07 rev/day^2
Epoch rev: 40462
Checksum: 315
Satellite: AO-16
Catalog number: 20439
Epoch time: 10119.76249733
Element set: 882
Inclination: 098.3283 deg
RA of node: 079.5857 deg
Eccentricity: 0.0010340
Arg of perigee: 315.1726 deg
Mean anomaly: 044.8611 deg
Mean motion: 14.31858630 rev/day
Decay rate: 2.9e-07 rev/day^2
Epoch rev: 5845
Checksum: 310
Satellite: LO-19
Catalog number: 20442
Epoch time: 10119.76800551
Element set: 792
Inclination: 098.2889 deg
RA of node: 085.5899 deg
Eccentricity: 0.0011241
Arg of perigee: 309.5447 deg
Mean anomaly: 050.4729 deg
Mean motion: 14.32089767 rev/day
Decay rate: -1.16e-06 rev/day^2
Epoch rev: 5862
Checksum: 327
Satellite: AO-27
Catalog number: 22825
Epoch time: 10118.79999785
Element set: 515
Inclination: 098.4831 deg
RA of node: 068.0373 deg
Eccentricity: 0.0009230
Arg of perigee: 058.5091 deg
Mean anomaly: 301.7011 deg
Mean motion: 14.29295181 rev/day
Decay rate: 5.4e-07 rev/day^2
Epoch rev: 86499
Checksum: 326
Satellite: IO-26
Catalog number: 22826
Epoch time: 10118.87428804
Element set: 253
Inclination: 098.4751 deg
RA of node: 068.7292 deg
Eccentricity: 0.0009825
Arg of perigee: 052.8646 deg
Mean anomaly: 307.3432 deg
Mean motion: 14.29550569 rev/day
Decay rate: 2.4e-07 rev/day^2
Epoch rev: 86511
Checksum: 319
Satellite: GO-32
Catalog number: 25397
Epoch time: 10118.60588508
Element set: 172
Inclination: 098.3134 deg
RA of node: 128.7873 deg
Eccentricity: 0.0002153
Arg of perigee: 068.8083 deg
Mean anomaly: 291.3311 deg
Mean motion: 14.23176416 rev/day
Decay rate: -6.1e-07 rev/day^2
Epoch rev: 61299
Checksum: 301
Satellite: NO-44
Catalog number: 26931
Epoch time: 10119.16168122
Element set: 445
Inclination: 067.0542 deg
RA of node: 330.2877 deg
Eccentricity: 0.0005834
Arg of perigee: 262.6501 deg
Mean anomaly: 097.3935 deg
Mean motion: 14.29595390 rev/day
Decay rate: 3.03e-06 rev/day^2
Epoch rev: 44774
Checksum: 302
Satellite: SO-50
Catalog number: 27607
Epoch time: 10119.48531387
Element set: 161
Inclination: 064.5570 deg
RA of node: 144.4431 deg
Eccentricity: 0.0034788
Arg of perigee: 100.2705 deg
Mean anomaly: 260.2327 deg
Mean motion: 14.71531285 rev/day
Decay rate: 5.8e-07 rev/day^2
Epoch rev: 39521
Checksum: 282
Satellite: CO-55
Catalog number: 27844
Epoch time: 10119.07779779
Element set: 835
Inclination: 098.7103 deg
RA of node: 128.7570 deg
Eccentricity: 0.0009591
Arg of perigee: 318.6163 deg
Mean anomaly: 041.4285 deg
Mean motion: 14.20702055 rev/day
Decay rate: 6.7e-07 rev/day^2
Epoch rev: 35411
Checksum: 314
Satellite: CO-57
Catalog number: 27848
Epoch time: 10119.02978399
Element set: 784
Inclination: 098.7145 deg
RA of node: 127.7945 deg
Eccentricity: 0.0009608
Arg of perigee: 323.6057 deg
Mean anomaly: 036.4455 deg
Mean motion: 14.20495451 rev/day
Decay rate: 7.7e-07 rev/day^2
Epoch rev: 35406
Checksum: 342
Satellite: AO-51
Catalog number: 28375
Epoch time: 10118.90707768
Element set: 663
Inclination: 098.0612 deg
RA of node: 115.2141 deg
Eccentricity: 0.0082961
Arg of perigee: 247.2921 deg
Mean anomaly: 111.9486 deg
Mean motion: 14.40681601 rev/day
Decay rate: 4.2e-07 rev/day^2
Epoch rev: 30641
Checksum: 287
Satellite: GENESAT1
Catalog number: 29655
Epoch time: 10119.87807298
Element set: 34
Inclination: 040.0181 deg
RA of node: 342.1903 deg
Eccentricity: 0.0009043
Arg of perigee: 319.0604 deg
Mean anomaly: 040.9540 deg
Mean motion: 15.84145564 rev/day
Decay rate: 7.9480e-04 rev/day^2
Epoch rev: 19230
Checksum: 286
Satellite: CP3
Catalog number: 31129
Epoch time: 10119.77971609
Element set: 564
Inclination: 097.9427 deg
RA of node: 161.9296 deg
Eccentricity: 0.0103351
Arg of perigee: 024.7646 deg
Mean anomaly: 335.8369 deg
Mean motion: 14.52246695 rev/day
Decay rate: 3.96e-06 rev/day^2
Epoch rev: 16083
Checksum: 332
Satellite: CO-65
Catalog number: 32785
Epoch time: 10119.67572223
Element set: 667
Inclination: 097.9002 deg
RA of node: 185.2644 deg
Eccentricity: 0.0016186
Arg of perigee: 083.0106 deg
Mean anomaly: 277.2981 deg
Mean motion: 14.81637437 rev/day
Decay rate: 2.57e-06 rev/day^2
Epoch rev: 10830
Checksum: 314
Satellite: KKS-1
Catalog number: 33493
Epoch time: 10119.67609162
Element set: 433
Inclination: 098.0788 deg
RA of node: 238.7688 deg
Eccentricity: 0.0018721
Arg of perigee: 299.9977 deg
Mean anomaly: 059.9378 deg
Mean motion: 14.80958079 rev/day
Decay rate: 5.43e-06 rev/day^2
Epoch rev: 6830
Checksum: 366
Satellite: SOHLA-1
Catalog number: 33496
Epoch time: 10118.79452586
Element set: 89
Inclination: 098.0530 deg
RA of node: 228.5208 deg
Eccentricity: 0.0006687
Arg of perigee: 009.9144 deg
Mean anomaly: 350.2193 deg
Mean motion: 14.69487938 rev/day
Decay rate: 1.3e-07 rev/day^2
Epoch rev: 6762
Checksum: 324
/EX
SB KEPS @ AMSAT $ORB10119.W
Orbital Elements 10119.WEATHER
HR AMSAT ORBITAL ELEMENTS FOR WEATHER SATELLITES
FROM WA5QGD FORT WORTH,TX April 29, 2010
Send Subscribe/unsubscribe to KEPS at http://www.amsat.org/mailman/listinfo/keps
BID: ORB10119.W
TO ALL RADIO AMATEURS BT
Satellite: NOAA-10
Catalog number: 16969
Epoch time: 10119.43595691
Element set: 49
Inclination: 098.6598 deg
RA of node: 148.8528 deg
Eccentricity: 0.0012334
Arg of perigee: 359.1537 deg
Mean anomaly: 000.9624 deg
Mean motion: 14.27414417 rev/day
Decay rate: 4.5e-07 rev/day^2
Epoch rev: 22862
Checksum: 322
Satellite: NOAA-11
Catalog number: 19531
Epoch time: 10119.16431107
Element set: 61
Inclination: 098.7681 deg
RA of node: 209.0221 deg
Eccentricity: 0.0010830
Arg of perigee: 290.7665 deg
Mean anomaly: 069.2371 deg
Mean motion: 14.14922885 rev/day
Decay rate: 5.4e-07 rev/day^2
Epoch rev: 11420
Checksum: 265
Satellite: NOAA-12
Catalog number: 21263
Epoch time: 10119.43287065
Element set: 547
Inclination: 098.7664 deg
RA of node: 132.5962 deg
Eccentricity: 0.0011818
Arg of perigee: 312.5872 deg
Mean anomaly: 047.4311 deg
Mean motion: 14.25630577 rev/day
Decay rate: 3.9e-07 rev/day^2
Epoch rev: 98545
Checksum: 309
Satellite: MET-3/5
Catalog number: 21655
Epoch time: 10118.87644368
Element set: 798
Inclination: 082.5596 deg
RA of node: 343.4815 deg
Eccentricity: 0.0014785
Arg of perigee: 109.4436 deg
Mean anomaly: 250.8249 deg
Mean motion: 13.17024998 rev/day
Decay rate: 5.1e-07 rev/day^2
Epoch rev: 89918
Checksum: 349
Satellite: MET-2/21
Catalog number: 22782
Epoch time: 10119.33525365
Element set: 761
Inclination: 082.5437 deg
RA of node: 291.2016 deg
Eccentricity: 0.0022542
Arg of perigee: 175.8827 deg
Mean anomaly: 184.2523 deg
Mean motion: 13.83643744 rev/day
Decay rate: 5.0e-08 rev/day^2
Epoch rev: 84132
Checksum: 290
Satellite: OKEAN-4
Catalog number: 23317
Epoch time: 10119.39811288
Element set: 217
Inclination: 082.5425 deg
RA of node: 039.3955 deg
Eccentricity: 0.0023727
Arg of perigee: 045.7862 deg
Mean anomaly: 314.5312 deg
Mean motion: 14.82805680 rev/day
Decay rate: 1.77e-06 rev/day^2
Epoch rev: 83922
Checksum: 305
